Location: ???????
(54.6339°N, 39.4245°E)
Time: 18:10:57
(UTC+00:00)

Cosmos 1975 - Pass Details

Date: 19 May 2025
Orbit: 487 x 505 km, 82.5° (Epoch: 20 June)

Event Time Altitude Azimuth Distance (km) Brightness Sun altitude
Rises 21:09:22 0° 338° (NNW) 2,579 7.7 -15.4°
Reaches altitude 10° 21:11:48 10° 323° (NW) 1,689 6.1 -15.4°
Maximum altitude 21:14:40 22° 272° (W) 1,129 4.4 -15.4°
Enters shadow 21:16:25 16° 235° (SW) 1,363 4.5 -15.4°
